Location: Peterborough
(44.3091°N, 78.3197°W)
Time: 01:04:23
(UTC-05:00)

Altair - Visible Passes

Search period start: 03 March 2024 00:00
Search period end: 13 March 2024 01:00
Orbit: 1501 x 1682 km, 47.2° (Epoch: 01 March)

Date Brightness Start Highest point End Pass type
(mag) Time Alt. Az. Time Alt. Az. Time Alt. Az.
04 Mar 9.3 06:16:25 10° S 06:23:58 30° SE 06:31:31 10° ENE visible
05 Mar 9.3 05:51:37 10° S 05:58:54 27° SE 06:06:10 10° ENE visible
06 Mar 9.3 05:26:52 10° S 05:33:50 25° SE 05:40:46 10° E visible
07 Mar 9.3 05:02:10 10° S 05:08:47 23° SE 05:15:21 10° E visible
08 Mar 9.4 04:37:32 10° S 04:43:45 20° SE 04:49:53 10° E visible
09 Mar 9.4 04:12:59 10° SSE 04:18:42 18° SE 04:24:21 10° E visible
10 Mar 9.4 04:48:32 10° SSE 04:53:39 16° SE 04:58:44 10° E visible
10 Mar 8.1 06:47:51 10° SW 06:56:43 54° SE 07:05:32 10° ENE visible
11 Mar 9.4 04:24:13 10° SSE 04:28:38 14° SE 04:33:00 10° E visible
11 Mar 8.1 06:22:48 10° SW 06:31:35 51° SE 06:40:19 10° ENE visible
12 Mar 9.4 04:00:08 10° SE 04:03:36 13° ESE 04:07:03 10° E visible
12 Mar 8.2 05:57:47 10° SSW 06:06:28 47° SE 06:15:04 10° ENE visible
